CXA8156 ZBTJ-ZSAM

Flight info

Callsign CXA8156
Flight time N/A
Altitude 31100
Route ELKUR8W ELKUR W40 YQG W142 DALIM A593 DPX A470 SAPIN V143 EMRID A470 ENVEN ENVEN8X
Aircraft B38M/M-SDE1FGHILORVWXY/HB1

Departure

Time 2026-04-25 13:05
Airport Tianjin Binhai International Airport (ZBTJ)

Arrival

Time N/A
Airport Xiamen Gaoqi International Airport (ZSAM)
Time Latitude Longitude Altitude Speed Heading
2026-04-25 12:35 39.12472 117.35970 24 ft 0 kts 334°
2026-04-25 12:47 39.12456 117.35980 24 ft 4 kts 334°
2026-04-25 12:48 39.12436 117.35993 25 ft 4 kts 321°
2026-04-25 12:48 39.12426 117.36018 22 ft 4 kts 266°
2026-04-25 12:48 39.12432 117.36051 24 ft 4 kts 247°
2026-04-25 12:48 39.12436 117.36064 25 ft 0 kts 244°
2026-04-25 12:51 39.12435 117.36060 24 ft 1 kts 244°
2026-04-25 12:52 39.12427 117.36040 24 ft 4 kts 244°
2026-04-25 12:52 39.12413 117.36000 24 ft 6 kts 244°
2026-04-25 12:52 39.12391 117.35943 25 ft 8 kts 244°
2026-04-25 12:52 39.12363 117.35868 23 ft 10 kts 244°
2026-04-25 12:53 39.12329 117.35776 21 ft 12 kts 244°
2026-04-25 12:53 39.12295 117.35669 21 ft 14 kts 260°
2026-04-25 12:53 39.12260 117.35548 23 ft 15 kts 245°
2026-04-25 12:53 39.12210 117.35419 23 ft 17 kts 244°
2026-04-25 12:54 39.12157 117.35274 23 ft 19 kts 244°
2026-04-25 12:54 39.12104 117.35131 25 ft 11 kts 250°
2026-04-25 12:54 39.12133 117.35061 22 ft 11 kts 329°
2026-04-25 12:54 39.12206 117.35015 21 ft 13 kts 334°
2026-04-25 12:55 39.12292 117.34962 22 ft 15 kts 334°
2026-04-25 12:55 39.12324 117.34942 21 ft 15 kts 334°
2026-04-25 12:55 39.12502 117.34833 22 ft 19 kts 334°
2026-04-25 12:55 39.12624 117.34759 22 ft 20 kts 334°
2026-04-25 12:56 39.12755 117.34678 22 ft 22 kts 334°
2026-04-25 12:56 39.12848 117.34620 25 ft 23 kts 334°
2026-04-25 12:56 39.12988 117.34534 22 ft 21 kts 334°
2026-04-25 12:56 39.13116 117.34456 21 ft 21 kts 335°
2026-04-25 12:57 39.13579 117.34172 24 ft 24 kts 334°
2026-04-25 12:57 39.13718 117.34086 22 ft 18 kts 334°
2026-04-25 12:58 39.13788 117.34022 22 ft 10 kts 290°
2026-04-25 12:58 39.13781 117.33973 22 ft 0 kts 245°
2026-04-25 12:58 39.13780 117.33971 22 ft 0 kts 245°
2026-04-25 13:02 39.13778 117.33965 22 ft 1 kts 245°
2026-04-25 13:03 39.13771 117.33947 26 ft 3 kts 245°
2026-04-25 13:03 39.13759 117.33913 27 ft 6 kts 245°
2026-04-25 13:03 39.13733 117.33861 27 ft 9 kts 216°
2026-04-25 13:03 39.13664 117.33863 26 ft 8 kts 153°
2026-04-25 13:04 39.13660 117.33866 27 ft 0 kts 153°
2026-04-25 13:04 39.13659 117.33866 23 ft 1 kts 153°
2026-04-25 13:04 39.13591 117.33908 24 ft 35 kts 155°
2026-04-25 13:04 39.13115 117.34198 21 ft 114 kts 155°
2026-04-25 13:05 39.12218 117.34750 46 ft 171 kts 156°
2026-04-25 13:05 39.11101 117.35393 691 ft 182 kts 160°
2026-04-25 13:05 39.09915 117.36001 1614 ft 182 kts 165°
2026-04-25 13:05 39.08706 117.36666 2390 ft 201 kts 163°
2026-04-25 13:06 39.07366 117.37483 3084 ft 224 kts 161°
2026-04-25 13:06 39.05936 117.38393 4043 ft 230 kts 160°
2026-04-25 13:06 39.04476 117.39329 5027 ft 239 kts 159°
2026-04-25 13:06 39.02963 117.40301 5973 ft 246 kts 159°
2026-04-25 13:07 39.01412 117.41297 6897 ft 253 kts 158°
2026-04-25 13:07 38.99772 117.42318 7576 ft 270 kts 162°
2026-04-25 13:07 38.97897 117.42658 8187 ft 279 kts 192°
2026-04-25 13:07 38.96126 117.41772 9180 ft 275 kts 217°
2026-04-25 13:08 38.94799 117.40025 9922 ft 283 kts 239°
2026-04-25 13:08 38.93773 117.37810 10567 ft 297 kts 242°
2026-04-25 13:08 38.92685 117.35405 11022 ft 317 kts 244°
2026-04-25 13:08 38.91626 117.32870 11414 ft 337 kts 244°
2026-04-25 13:09 38.90504 117.30155 11939 ft 351 kts 244°
2026-04-25 13:09 38.89536 117.27808 12502 ft 357 kts 244°
2026-04-25 13:09 38.88372 117.24982 13361 ft 360 kts 245°
2026-04-25 13:09 38.87200 117.22120 14070 ft 365 kts 245°
2026-04-25 13:10 38.86010 117.19217 14753 ft 369 kts 245°
2026-04-25 13:10 38.84811 117.16293 15499 ft 372 kts 245°
2026-04-25 13:10 38.83606 117.13358 16228 ft 374 kts 245°
2026-04-25 13:10 38.82390 117.10400 16932 ft 377 kts 245°
2026-04-25 13:11 38.81163 117.07415 17634 ft 380 kts 245°
2026-04-25 13:11 38.79924 117.04406 18281 ft 383 kts 245°
2026-04-25 13:11 38.78676 117.01377 18863 ft 386 kts 245°
2026-04-25 13:11 38.77417 116.98323 19437 ft 389 kts 245°
2026-04-25 13:12 38.76146 116.95245 20003 ft 392 kts 245°
2026-04-25 13:12 38.74852 116.92154 20561 ft 395 kts 245°
2026-04-25 13:12 38.73535 116.89042 21086 ft 399 kts 245°
2026-04-25 13:12 38.72656 116.86964 21425 ft 402 kts 245°
2026-04-25 13:13 38.70870 116.82742 22151 ft 406 kts 245°
2026-04-25 13:13 38.69519 116.79554 22674 ft 409 kts 245°
2026-04-25 13:13 38.68158 116.76342 23197 ft 412 kts 245°
2026-04-25 13:13 38.66783 116.73103 23662 ft 416 kts 245°
2026-04-25 13:14 38.65096 116.70073 24103 ft 425 kts 230°
2026-04-25 13:14 38.62749 116.67719 24582 ft 435 kts 214°
2026-04-25 13:14 38.59908 116.66259 25017 ft 447 kts 198°
2026-04-25 13:14 38.56804 116.65724 25442 ft 454 kts 189°
2026-04-25 13:15 38.53644 116.65334 25799 ft 458 kts 190°
2026-04-25 13:15 38.50458 116.64951 26183 ft 461 kts 189°
2026-04-25 13:15 38.47256 116.64578 26569 ft 464 kts 189°
2026-04-25 13:15 38.44026 116.64206 26942 ft 467 kts 190°
2026-04-25 13:16 38.40779 116.63834 27314 ft 470 kts 190°
2026-04-25 13:16 38.37507 116.63460 27645 ft 473 kts 190°
2026-04-25 13:16 38.34216 116.63083 27988 ft 477 kts 190°
2026-04-25 13:16 38.30896 116.62753 28341 ft 482 kts 185°
2026-04-25 13:17 38.27535 116.63248 28738 ft 492 kts 169°
2026-04-25 13:17 38.24220 116.64406 29076 ft 496 kts 168°
2026-04-25 13:17 38.20921 116.65580 29357 ft 500 kts 167°
2026-04-25 13:17 38.17570 116.66802 29720 ft 503 kts 167°
2026-04-25 13:18 38.14200 116.68047 29992 ft 506 kts 167°
2026-04-25 13:18 38.10813 116.69316 30257 ft 509 kts 166°
2026-04-25 13:18 38.07410 116.70621 30531 ft 512 kts 166°
2026-04-25 13:18 38.03994 116.71924 30832 ft 514 kts 166°
2026-04-25 13:19 38.00565 116.73230 31006 ft 516 kts 166°
2026-04-25 13:19 37.97128 116.74537 30999 ft 514 kts 166°
2026-04-25 13:19 37.92550 116.76277 30996 ft 513 kts 166°